This is the latest recevied weather packets stored in our database for station/object IU8UOQ-5. If no packets are shown the sender has not sent any weather packets the latest 10 day(s).
| Time | Temp. | Humidity | Pressure | Rain* | Wind** | Luminosity | Snow |
|---|---|---|---|---|---|---|---|
| 1777424375 | 20.56° C | 42% | 1007.9 hPa | - | - | - | - |
| 1777423173 | 20.56° C | 42% | 1008 hPa | - | - | - | - |
| 1777421972 | 20.56° C | 41% | 1008.2 hPa | - | - | - | - |
| 1777420771 | 20.56° C | 41% | 1008.3 hPa | - | - | - | - |
| 1777419570 | 20.56° C | 41% | 1008.4 hPa | - | - | - | - |
| 1777418369 | 20.56° C | 42% | 1008.6 hPa | - | - | - | - |
| 1777417167 | 20.56° C | 42% | 1008.7 hPa | - | - | - | - |
| 1777415966 | 20.56° C | 42% | 1008.8 hPa | - | - | - | - |
| 1777414765 | 20.56° C | 42% | 1008.6 hPa | - | - | - | - |
| 1777413563 | 21.11° C | 43% | 1008.6 hPa | - | - | - | - |
| 1777412362 | 21.11° C | 43% | 1008.8 hPa | - | - | - | - |
| 1777411161 | 21.11° C | 43% | 1009.1 hPa | - | - | - | - |
| 1777409960 | 21.11° C | 43% | 1008.8 hPa | - | - | - | - |
| 1777408759 | 21.11° C | 43% | 1008.6 hPa | - | - | - | - |
| 1777407557 | 21.67° C | 43% | 1008.6 hPa | - | - | - | - |
| 1777406355 | 21.67° C | 42% | 1008.4 hPa | - | - | - | - |
| 1777405154 | 22.22° C | 39% | 1008.5 hPa | - | - | - | - |
| 1777403951 | 22.22° C | 41% | 1008.6 hPa | - | - | - | - |
| 1777402749 | 22.78° C | 44% | 1008.4 hPa | - | - | - | - |
| 1777401547 | 22.22° C | 46% | 1008.2 hPa | - | - | - | - |
| 1777400346 | 22.78° C | 44% | 1008 hPa | - | - | - | - |
| 1777399145 | 22.78° C | 46% | 1008.2 hPa | - | - | - | - |
| 1777397944 | 22.22° C | 50% | 1008 hPa | - | - | - | - |
| 1777396742 | 21.67° C | 51% | 1007.9 hPa | - | - | - | - |
| 1777395541 | 20° C | 53% | 1008 hPa | - | - | - | - |
* Rain since midnight (hover to see other rain measurements)
** Current wind speed in m/s (hover to see current wind gust speed)